owner,sensor,date,latitude,longitude,air_pressure(mBar),qcFlag 
COMPS,ioos:station:USF.COMPS:C10:1,2016-09-01T00:05:00Z,27.1690,-82.9260,1010.76,1111122 
COMPS,ioos:station:USF.COMPS:C10:1,2016-09-01T00:35:00Z,27.1690,-82.9260,1010.84,1111122 
COMPS,ioos:station:USF.COMPS:C10:1,2016-09-01T01:05:00Z,27.1690,-82.9260,1010.79,1111122 
COMPS,ioos:station:USF.COMPS:C10:1,2016-09-01T01:35:00Z,27.1690,-82.9260,1011.02,1111122 
COMPS,ioos:station:USF.COMPS:C10:1,2016-09-01T02:05:00Z,27.1690,-82.9260,1011.39,1111122 
COMPS,ioos:station:USF.COMPS:C10:1,2016-09-01T02:35:00Z,27.1690,-82.9260,1011.62,1111122 
COMPS,ioos:station:USF.COMPS:C10:1,2016-09-01T03:05:00Z,27.1690,-82.9260,1011.61,1111122 
COMPS,ioos:station:USF.COMPS:C10:1,2016-09-01T03:35:00Z,27.1690,-82.9260,1011.24,1111122 
COMPS,ioos:station:USF.COMPS:C10:1,2016-09-01T04:05:00Z,27.1690,-82.9260,1010.98,1111122 
COMPS,ioos:station:USF.COMPS:C10:1,2016-09-01T04:35:00Z,27.1690,-82.9260,1010.7,1111122 
COMPS,ioos:station:USF.COMPS:C10:1,2016-09-01T05:05:00Z,27.1690,-82.9260,1010.44,1111122 
COMPS,ioos:station:USF.COMPS:C10:1,2016-09-01T05:35:00Z,27.1690,-82.9260,1010.16,1111122 
COMPS,ioos:station:USF.COMPS:C10:1,2016-09-01T06:05:00Z,27.1690,-82.9260,1009.92,1111122 
COMPS,ioos:station:USF.COMPS:C10:1,2016-09-01T06:35:00Z,27.1690,-82.9260,1009.34,1111122 
COMPS,ioos:station:USF.COMPS:C10:1,2016-09-01T07:05:00Z,27.1690,-82.9260,1008.75,1111122 
COMPS,ioos:station:USF.COMPS:C10:1,2016-09-01T07:35:00Z,27.1690,-82.9260,1008.73,1111122 
COMPS,ioos:station:USF.COMPS:C10:1,2016-09-01T08:05:00Z,27.1690,-82.9260,1008.49,1111122 
COMPS,ioos:station:USF.COMPS:C10:1,2016-09-01T08:35:00Z,27.1690,-82.9260,1008.27,1111122 
COMPS,ioos:station:USF.COMPS:C10:1,2016-09-01T09:05:00Z,27.1690,-82.9260,1007.96,1111122 
COMPS,ioos:station:USF.COMPS:C10:1,2016-09-01T09:35:00Z,27.1690,-82.9260,1007.88,1111122 
COMPS,ioos:station:USF.COMPS:C10:1,2016-09-01T10:05:00Z,27.1690,-82.9260,1007.77,1111122 
COMPS,ioos:station:USF.COMPS:C10:1,2016-09-01T10:35:00Z,27.1690,-82.9260,1007.79,1111122 
COMPS,ioos:station:USF.COMPS:C10:1,2016-09-01T11:05:00Z,27.1690,-82.9260,1007.77,1111122 
COMPS,ioos:station:USF.COMPS:C10:1,2016-09-01T11:35:00Z,27.1690,-82.9260,1007.92,1111122 
COMPS,ioos:station:USF.COMPS:C10:1,2016-09-01T12:05:00Z,27.1690,-82.9260,1008.07,1111122 
COMPS,ioos:station:USF.COMPS:C10:1,2016-09-01T12:35:00Z,27.1690,-82.9260,1008.33,1111122 
COMPS,ioos:station:USF.COMPS:C10:1,2016-09-01T13:05:00Z,27.1690,-82.9260,1008.35,1111122 
COMPS,ioos:station:USF.COMPS:C10:1,2016-09-01T13:35:00Z,27.1690,-82.9260,1008.36,1111122 
COMPS,ioos:station:USF.COMPS:C10:1,2016-09-01T14:05:00Z,27.1690,-82.9260,1008.22,1111122 
COMPS,ioos:station:USF.COMPS:C10:1,2016-09-01T14:35:00Z,27.1690,-82.9260,1008.26,1111122 
COMPS,ioos:station:USF.COMPS:C10:1,2016-09-01T15:05:00Z,27.1690,-82.9260,1008.35,1111122 
COMPS,ioos:station:USF.COMPS:C10:1,2016-09-01T15:35:00Z,27.1690,-82.9260,1008.49,1111122 
COMPS,ioos:station:USF.COMPS:C10:1,2016-09-01T16:05:00Z,27.1690,-82.9260,1008.09,1111122 
COMPS,ioos:station:USF.COMPS:C10:1,2016-09-01T16:35:00Z,27.1690,-82.9260,1008.34,1111122 
COMPS,ioos:station:USF.COMPS:C10:1,2016-09-01T17:05:00Z,27.1690,-82.9260,1008.09,1111122 
COMPS,ioos:station:USF.COMPS:C10:1,2016-09-01T17:35:00Z,27.1690,-82.9260,1007.78,1111122 
COMPS,ioos:station:USF.COMPS:C10:1,2016-09-01T18:05:00Z,27.1690,-82.9260,1008.48,1111122 
COMPS,ioos:station:USF.COMPS:C10:1,2016-09-01T18:35:00Z,27.1690,-82.9260,1007.75,1111122 
COMPS,ioos:station:USF.COMPS:C10:1,2016-09-01T19:05:00Z,27.1690,-82.9260,1007.5,1111122 
COMPS,ioos:station:USF.COMPS:C10:1,2016-09-01T19:35:00Z,27.1690,-82.9260,1007.24,1111122 
COMPS,ioos:station:USF.COMPS:C10:1,2016-09-01T20:05:00Z,27.1690,-82.9260,1006.72,1111122 
COMPS,ioos:station:USF.COMPS:C10:1,2016-09-01T20:35:00Z,27.1690,-82.9260,1006.73,1111122 
COMPS,ioos:station:USF.COMPS:C10:1,2016-09-01T21:05:00Z,27.1690,-82.9260,1005.83,1111122 
COMPS,ioos:station:USF.COMPS:C10:1,2016-09-01T21:35:00Z,27.1690,-82.9260,1007.06,1111122 
COMPS,ioos:station:USF.COMPS:C10:1,2016-09-01T22:05:00Z,27.1690,-82.9260,1006.81,1111122 
COMPS,ioos:station:USF.COMPS:C10:1,2016-09-01T22:35:00Z,27.1690,-82.9260,1006.86,1111122 
COMPS,ioos:station:USF.COMPS:C10:1,2016-09-01T23:05:00Z,27.1690,-82.9260,1006.98,1111122 
COMPS,ioos:station:USF.COMPS:C10:1,2016-09-01T23:35:00Z,27.1690,-82.9260,1007.19,1111122 
COMPS,ioos:station:USF.COMPS:C10:1,2016-09-02T00:05:00Z,27.1690,-82.9260,1007.02,1111122 
COMPS,ioos:station:USF.COMPS:C10:1,2016-09-02T00:35:00Z,27.1690,-82.9260,1006.47,1111122 
COMPS,ioos:station:USF.COMPS:C10:1,2016-09-02T01:05:00Z,27.1690,-82.9260,1006.82,1111122 
COMPS,ioos:station:USF.COMPS:C10:1,2016-09-02T01:35:00Z,27.1690,-82.9260,1006.95,1111122 
COMPS,ioos:station:USF.COMPS:C10:1,2016-09-02T02:05:00Z,27.1690,-82.9260,1007.32,1111122 
COMPS,ioos:station:USF.COMPS:C10:1,2016-09-02T02:35:00Z,27.1690,-82.9260,1007.36,1111122 
COMPS,ioos:station:USF.COMPS:C10:1,2016-09-02T03:05:00Z,27.1690,-82.9260,1007.44,1111122 
COMPS,ioos:station:USF.COMPS:C10:1,2016-09-02T03:35:00Z,27.1690,-82.9260,1007.64,1111122 
COMPS,ioos:station:USF.COMPS:C10:1,2016-09-02T04:05:00Z,27.1690,-82.9260,1008.58,1111122 
COMPS,ioos:station:USF.COMPS:C10:1,2016-09-02T04:35:00Z,27.1690,-82.9260,1008.37,1111122 
COMPS,ioos:station:USF.COMPS:C10:1,2016-09-02T05:05:00Z,27.1690,-82.9260,1008.67,1111122 
COMPS,ioos:station:USF.COMPS:C10:1,2016-09-02T05:35:00Z,27.1690,-82.9260,1008.34,1111122 
COMPS,ioos:station:USF.COMPS:C10:1,2016-09-02T06:05:00Z,27.1690,-82.9260,1008.04,1111122 
COMPS,ioos:station:USF.COMPS:C10:1,2016-09-02T06:35:00Z,27.1690,-82.9260,1008.33,1111122 
COMPS,ioos:station:USF.COMPS:C10:1,2016-09-02T07:05:00Z,27.1690,-82.9260,1007.71,1111122 
COMPS,ioos:station:USF.COMPS:C10:1,2016-09-02T07:35:00Z,27.1690,-82.9260,1008.51,1111122 
COMPS,ioos:station:USF.COMPS:C10:1,2016-09-02T08:05:00Z,27.1690,-82.9260,1008.92,1111122 
COMPS,ioos:station:USF.COMPS:C10:1,2016-09-02T08:35:00Z,27.1690,-82.9260,1009.46,1111122 
COMPS,ioos:station:USF.COMPS:C10:1,2016-09-02T09:05:00Z,27.1690,-82.9260,1009.36,1111122 
COMPS,ioos:station:USF.COMPS:C10:1,2016-09-02T09:35:00Z,27.1690,-82.9260,1009.74,1111122 
COMPS,ioos:station:USF.COMPS:C10:1,2016-09-02T10:05:00Z,27.1690,-82.9260,1010.69,1111122 
COMPS,ioos:station:USF.COMPS:C10:1,2016-09-02T10:35:00Z,27.1690,-82.9260,1010.59,1111122 
COMPS,ioos:station:USF.COMPS:C10:1,2016-09-02T11:05:00Z,27.1690,-82.9260,1010.48,1111122 
COMPS,ioos:station:USF.COMPS:C10:1,2016-09-02T11:35:00Z,27.1690,-82.9260,1011.17,1111122 
COMPS,ioos:station:USF.COMPS:C10:1,2016-09-02T12:05:00Z,27.1690,-82.9260,1012.27,1111122 
COMPS,ioos:station:USF.COMPS:C10:1,2016-09-02T12:35:00Z,27.1690,-82.9260,1012.79,1111122 
COMPS,ioos:station:USF.COMPS:C10:1,2016-09-02T13:05:00Z,27.1690,-82.9260,1012.74,1111122 
COMPS,ioos:station:USF.COMPS:C10:1,2016-09-02T13:35:00Z,27.1690,-82.9260,1012.68,1111122 
COMPS,ioos:station:USF.COMPS:C10:1,2016-09-02T14:05:00Z,27.1690,-82.9260,1011.98,1111122 
COMPS,ioos:station:USF.COMPS:C10:1,2016-09-02T14:35:00Z,27.1690,-82.9260,1012.9,1111122 
COMPS,ioos:station:USF.COMPS:C10:1,2016-09-02T15:05:00Z,27.1690,-82.9260,1013.15,1111122 
COMPS,ioos:station:USF.COMPS:C10:1,2016-09-02T15:35:00Z,27.1690,-82.9260,1013.18,1111122 
COMPS,ioos:station:USF.COMPS:C10:1,2016-09-02T16:05:00Z,27.1690,-82.9260,1013.08,1111122 
COMPS,ioos:station:USF.COMPS:C10:1,2016-09-02T16:35:00Z,27.1690,-82.9260,1013.19,1111122 
COMPS,ioos:station:USF.COMPS:C10:1,2016-09-02T17:05:00Z,27.1690,-82.9260,1013.09,1111122 
COMPS,ioos:station:USF.COMPS:C10:1,2016-09-02T17:35:00Z,27.1690,-82.9260,1012.78,1111122 
COMPS,ioos:station:USF.COMPS:C10:1,2016-09-02T18:05:00Z,27.1690,-82.9260,1013.09,1111122 
COMPS,ioos:station:USF.COMPS:C10:1,2016-09-02T18:35:00Z,27.1690,-82.9260,1013.25,1111122 
COMPS,ioos:station:USF.COMPS:C10:1,2016-09-02T19:05:00Z,27.1690,-82.9260,1013.19,1111122 
COMPS,ioos:station:USF.COMPS:C10:1,2016-09-02T19:35:00Z,27.1690,-82.9260,1013.47,1111122 
COMPS,ioos:station:USF.COMPS:C10:1,2016-09-02T20:05:00Z,27.1690,-82.9260,1013.24,1111122 
COMPS,ioos:station:USF.COMPS:C10:1,2016-09-02T20:35:00Z,27.1690,-82.9260,1012.97,1111122 
COMPS,ioos:station:USF.COMPS:C10:1,2016-09-02T21:05:00Z,27.1690,-82.9260,1013.1,1111122 
COMPS,ioos:station:USF.COMPS:C10:1,2016-09-02T21:35:00Z,27.1690,-82.9260,1013.15,1111122 
COMPS,ioos:station:USF.COMPS:C10:1,2016-09-02T22:05:00Z,27.1690,-82.9260,1013.21,1111122 
COMPS,ioos:station:USF.COMPS:C10:1,2016-09-02T22:35:00Z,27.1690,-82.9260,1012.89,1111122 
COMPS,ioos:station:USF.COMPS:C10:1,2016-09-02T23:05:00Z,27.1690,-82.9260,1012.75,1111122 
COMPS,ioos:station:USF.COMPS:C10:1,2016-09-02T23:35:00Z,27.1690,-82.9260,1013.16,1111122 
COMPS,ioos:station:USF.COMPS:C10:1,2016-09-03T00:05:00Z,27.1690,-82.9260,1013.63,1111122 
COMPS,ioos:station:USF.COMPS:C10:1,2016-09-03T00:35:00Z,27.1690,-82.9260,1013.63,1111122 
COMPS,ioos:station:USF.COMPS:C10:1,2016-09-03T01:05:00Z,27.1690,-82.9260,1013.7,1111122 
COMPS,ioos:station:USF.COMPS:C10:1,2016-09-03T01:35:00Z,27.1690,-82.9260,1014.02,1111122 
COMPS,ioos:station:USF.COMPS:C10:1,2016-09-03T02:05:00Z,27.1690,-82.9260,1014.15,1111122 
COMPS,ioos:station:USF.COMPS:C10:1,2016-09-03T02:35:00Z,27.1690,-82.9260,1013.93,1111122 
COMPS,ioos:station:USF.COMPS:C10:1,2016-09-03T03:05:00Z,27.1690,-82.9260,1013.29,1111122 
COMPS,ioos:station:USF.COMPS:C10:1,2016-09-03T03:35:00Z,27.1690,-82.9260,1013.26,1111122 
COMPS,ioos:station:USF.COMPS:C10:1,2016-09-03T04:05:00Z,27.1690,-82.9260,1013.09,1111122 
COMPS,ioos:station:USF.COMPS:C10:1,2016-09-03T04:35:00Z,27.1690,-82.9260,1013.29,1111122 
COMPS,ioos:station:USF.COMPS:C10:1,2016-09-03T05:05:00Z,27.1690,-82.9260,1013.49,1111122 
COMPS,ioos:station:USF.COMPS:C10:1,2016-09-03T05:35:00Z,27.1690,-82.9260,1013.7,1111122 
COMPS,ioos:station:USF.COMPS:C10:1,2016-09-03T06:05:00Z,27.1690,-82.9260,1013.64,1111122 
COMPS,ioos:station:USF.COMPS:C10:1,2016-09-03T06:35:00Z,27.1690,-82.9260,1013.68,1111122 
COMPS,ioos:station:USF.COMPS:C10:1,2016-09-03T07:05:00Z,27.1690,-82.9260,1013.71,1111122 
COMPS,ioos:station:USF.COMPS:C10:1,2016-09-03T07:35:00Z,27.1690,-82.9260,1014.05,1111122 
COMPS,ioos:station:USF.COMPS:C10:1,2016-09-03T08:05:00Z,27.1690,-82.9260,1014.01,1111122 
COMPS,ioos:station:USF.COMPS:C10:1,2016-09-03T08:35:00Z,27.1690,-82.9260,1013.91,1111122 
COMPS,ioos:station:USF.COMPS:C10:1,2016-09-03T09:05:00Z,27.1690,-82.9260,1013.81,1111122 
COMPS,ioos:station:USF.COMPS:C10:1,2016-09-03T09:35:00Z,27.1690,-82.9260,1013.68,1111122 
COMPS,ioos:station:USF.COMPS:C10:1,2016-09-03T10:05:00Z,27.1690,-82.9260,1013.7,1111122 
COMPS,ioos:station:USF.COMPS:C10:1,2016-09-03T10:35:00Z,27.1690,-82.9260,1013.88,1111122 
COMPS,ioos:station:USF.COMPS:C10:1,2016-09-03T11:05:00Z,27.1690,-82.9260,1014.19,1111122 
COMPS,ioos:station:USF.COMPS:C10:1,2016-09-03T11:35:00Z,27.1690,-82.9260,1014.52,1111122 
COMPS,ioos:station:USF.COMPS:C10:1,2016-09-03T12:05:00Z,27.1690,-82.9260,1014.65,1111122 
COMPS,ioos:station:USF.COMPS:C10:1,2016-09-03T12:35:00Z,27.1690,-82.9260,1014.88,1111122 
COMPS,ioos:station:USF.COMPS:C10:1,2016-09-03T13:05:00Z,27.1690,-82.9260,1015.03,1111122 
COMPS,ioos:station:USF.COMPS:C10:1,2016-09-03T13:35:00Z,27.1690,-82.9260,1015.38,1111122 
COMPS,ioos:station:USF.COMPS:C10:1,2016-09-03T14:05:00Z,27.1690,-82.9260,1015.27,1111122 
COMPS,ioos:station:USF.COMPS:C10:1,2016-09-03T14:35:00Z,27.1690,-82.9260,1015.33,1111122 
COMPS,ioos:station:USF.COMPS:C10:1,2016-09-03T15:05:00Z,27.1690,-82.9260,1015.5,1111122 
COMPS,ioos:station:USF.COMPS:C10:1,2016-09-03T15:35:00Z,27.1690,-82.9260,1016.09,1111122 
COMPS,ioos:station:USF.COMPS:C10:1,2016-09-03T16:05:00Z,27.1690,-82.9260,1016.12,1111122 
COMPS,ioos:station:USF.COMPS:C10:1,2016-09-03T16:35:00Z,27.1690,-82.9260,1016.37,1111122 
COMPS,ioos:station:USF.COMPS:C10:1,2016-09-03T17:05:00Z,27.1690,-82.9260,1016.24,1111122 
COMPS,ioos:station:USF.COMPS:C10:1,2016-09-03T17:35:00Z,27.1690,-82.9260,1015.88,1111122 
COMPS,ioos:station:USF.COMPS:C10:1,2016-09-03T18:05:00Z,27.1690,-82.9260,1015.88,1111122 
COMPS,ioos:station:USF.COMPS:C10:1,2016-09-03T18:35:00Z,27.1690,-82.9260,1015.38,1111122 
COMPS,ioos:station:USF.COMPS:C10:1,2016-09-03T19:05:00Z,27.1690,-82.9260,1015.11,1111122 
COMPS,ioos:station:USF.COMPS:C10:1,2016-09-03T19:35:00Z,27.1690,-82.9260,1014.94,1111122 
COMPS,ioos:station:USF.COMPS:C10:1,2016-09-03T20:05:00Z,27.1690,-82.9260,1014.74,1111122 
COMPS,ioos:station:USF.COMPS:C10:1,2016-09-03T20:35:00Z,27.1690,-82.9260,1014.52,1111122 
COMPS,ioos:station:USF.COMPS:C10:1,2016-09-03T21:05:00Z,27.1690,-82.9260,1014.27,1111122 
COMPS,ioos:station:USF.COMPS:C10:1,2016-09-03T21:35:00Z,27.1690,-82.9260,1014.21,1111122 
COMPS,ioos:station:USF.COMPS:C10:1,2016-09-03T22:05:00Z,27.1690,-82.9260,1014.18,1111122 
COMPS,ioos:station:USF.COMPS:C10:1,2016-09-03T22:35:00Z,27.1690,-82.9260,1014.18,1111122 
COMPS,ioos:station:USF.COMPS:C10:1,2016-09-03T23:05:00Z,27.1690,-82.9260,1014.57,1111122 
COMPS,ioos:station:USF.COMPS:C10:1,2016-09-03T23:35:00Z,27.1690,-82.9260,1014.95,1111122 
COMPS,ioos:station:USF.COMPS:C10:1,2016-09-04T00:05:00Z,27.1690,-82.9260,1015.33,1111122 
COMPS,ioos:station:USF.COMPS:C10:1,2016-09-04T00:35:00Z,27.1690,-82.9260,1015.41,1111122 
COMPS,ioos:station:USF.COMPS:C10:1,2016-09-04T01:05:00Z,27.1690,-82.9260,1015.74,1111122 
COMPS,ioos:station:USF.COMPS:C10:1,2016-09-04T01:35:00Z,27.1690,-82.9260,1016.16,1111122 
COMPS,ioos:station:USF.COMPS:C10:1,2016-09-04T02:05:00Z,27.1690,-82.9260,1016.48,1111122 
COMPS,ioos:station:USF.COMPS:C10:1,2016-09-04T02:35:00Z,27.1690,-82.9260,1016.85,1111122 
COMPS,ioos:station:USF.COMPS:C10:1,2016-09-04T03:05:00Z,27.1690,-82.9260,1016.77,1111122 
COMPS,ioos:station:USF.COMPS:C10:1,2016-09-04T03:35:00Z,27.1690,-82.9260,1016.46,1111122 
COMPS,ioos:station:USF.COMPS:C10:1,2016-09-04T04:05:00Z,27.1690,-82.9260,1016.34,1111122 
COMPS,ioos:station:USF.COMPS:C10:1,2016-09-04T04:35:00Z,27.1690,-82.9260,1016.34,1111122 
COMPS,ioos:station:USF.COMPS:C10:1,2016-09-04T07:05:00Z,27.1690,-82.9260,1015.56,1111122 
COMPS,ioos:station:USF.COMPS:C10:1,2016-09-04T07:35:00Z,27.1690,-82.9260,1015.48,1111122 
COMPS,ioos:station:USF.COMPS:C10:1,2016-09-04T08:05:00Z,27.1690,-82.9260,1015.43,1111122 
COMPS,ioos:station:USF.COMPS:C10:1,2016-09-04T08:35:00Z,27.1690,-82.9260,1015.45,1111122 
COMPS,ioos:station:USF.COMPS:C10:1,2016-09-04T09:05:00Z,27.1690,-82.9260,1015.45,1111122 
COMPS,ioos:station:USF.COMPS:C10:1,2016-09-04T09:35:00Z,27.1690,-82.9260,1015.52,1111122 
COMPS,ioos:station:USF.COMPS:C10:1,2016-09-04T10:05:00Z,27.1690,-82.9260,1015.75,1111122 
COMPS,ioos:station:USF.COMPS:C10:1,2016-09-04T10:35:00Z,27.1690,-82.9260,1015.88,1111122 
COMPS,ioos:station:USF.COMPS:C10:1,2016-09-04T11:05:00Z,27.1690,-82.9260,1016.13,1111122 
COMPS,ioos:station:USF.COMPS:C10:1,2016-09-04T11:35:00Z,27.1690,-82.9260,1016.27,1111122 
COMPS,ioos:station:USF.COMPS:C10:1,2016-09-04T12:05:00Z,27.1690,-82.9260,1016.49,1111122 
COMPS,ioos:station:USF.COMPS:C10:1,2016-09-04T12:35:00Z,27.1690,-82.9260,1016.7,1111122 
COMPS,ioos:station:USF.COMPS:C10:1,2016-09-04T13:05:00Z,27.1690,-82.9260,1016.8,1111122 
COMPS,ioos:station:USF.COMPS:C10:1,2016-09-04T13:35:00Z,27.1690,-82.9260,1016.99,1111122 
COMPS,ioos:station:USF.COMPS:C10:1,2016-09-04T14:05:00Z,27.1690,-82.9260,1017.21,1111122 
COMPS,ioos:station:USF.COMPS:C10:1,2016-09-04T14:35:00Z,27.1690,-82.9260,1017.46,1111122 
COMPS,ioos:station:USF.COMPS:C10:1,2016-09-04T16:05:00Z,27.1690,-82.9260,1017.93,1111122 
COMPS,ioos:station:USF.COMPS:C10:1,2016-09-04T16:35:00Z,27.1690,-82.9260,1017.73,1111122 
COMPS,ioos:station:USF.COMPS:C10:1,2016-09-04T17:05:00Z,27.1690,-82.9260,1017.55,1111122 
COMPS,ioos:station:USF.COMPS:C10:1,2016-09-04T17:35:00Z,27.1690,-82.9260,1017.23,1111122 
COMPS,ioos:station:USF.COMPS:C10:1,2016-09-04T18:05:00Z,27.1690,-82.9260,1017.18,1111122 
COMPS,ioos:station:USF.COMPS:C10:1,2016-09-04T18:35:00Z,27.1690,-82.9260,1016.75,1111122 
COMPS,ioos:station:USF.COMPS:C10:1,2016-09-04T19:05:00Z,27.1690,-82.9260,1016.35,1111122 
COMPS,ioos:station:USF.COMPS:C10:1,2016-09-04T19:35:00Z,27.1690,-82.9260,1015.93,1111122 
COMPS,ioos:station:USF.COMPS:C10:1,2016-09-04T20:05:00Z,27.1690,-82.9260,1015.51,1111122 
COMPS,ioos:station:USF.COMPS:C10:1,2016-09-04T20:35:00Z,27.1690,-82.9260,1015.44,1111122 
COMPS,ioos:station:USF.COMPS:C10:1,2016-09-04T21:05:00Z,27.1690,-82.9260,1015.28,1111122 
COMPS,ioos:station:USF.COMPS:C10:1,2016-09-04T21:35:00Z,27.1690,-82.9260,1015.07,1111122 
COMPS,ioos:station:USF.COMPS:C10:1,2016-09-04T22:05:00Z,27.1690,-82.9260,1015.11,1111122 
COMPS,ioos:station:USF.COMPS:C10:1,2016-09-04T22:35:00Z,27.1690,-82.9260,1015.09,1111122 
COMPS,ioos:station:USF.COMPS:C10:1,2016-09-04T23:05:00Z,27.1690,-82.9260,1015.13,1111122 
COMPS,ioos:station:USF.COMPS:C10:1,2016-09-04T23:35:00Z,27.1690,-82.9260,1015.48,1111122 
COMPS,ioos:station:USF.COMPS:C10:1,2016-09-05T01:05:00Z,27.1690,-82.9260,1016.16,1111122 
COMPS,ioos:station:USF.COMPS:C10:1,2016-09-05T01:35:00Z,27.1690,-82.9260,1016.81,1111122 
COMPS,ioos:station:USF.COMPS:C10:1,2016-09-05T08:05:00Z,27.1690,-82.9260,1016.15,1111122 
COMPS,ioos:station:USF.COMPS:C10:1,2016-09-05T08:35:00Z,27.1690,-82.9260,1015.89,1111122 
COMPS,ioos:station:USF.COMPS:C10:1,2016-09-05T19:05:00Z,27.1690,-82.9260,1016.87,1111122 
COMPS,ioos:station:USF.COMPS:C10:1,2016-09-05T19:35:00Z,27.1690,-82.9260,1016.69,1111122 
COMPS,ioos:station:USF.COMPS:C10:1,2016-09-05T20:05:00Z,27.1690,-82.9260,1016.23,1111122 
COMPS,ioos:station:USF.COMPS:C10:1,2016-09-05T20:35:00Z,27.1690,-82.9260,1015.89,1111122 
COMPS,ioos:station:USF.COMPS:C10:1,2016-09-06T00:05:00Z,27.1690,-82.9260,1016.91,1111122 
COMPS,ioos:station:USF.COMPS:C10:1,2016-09-06T00:35:00Z,27.1690,-82.9260,1017.09,1111122 
COMPS,ioos:station:USF.COMPS:C10:1,2016-09-06T05:05:00Z,27.1690,-82.9260,1017.84,1111122 
COMPS,ioos:station:USF.COMPS:C10:1,2016-09-06T09:05:00Z,27.1690,-82.9260,1017.16,1111122 
COMPS,ioos:station:USF.COMPS:C10:1,2016-09-06T09:35:00Z,27.1690,-82.9260,1017.2,1111122 
COMPS,ioos:station:USF.COMPS:C10:1,2016-09-06T11:05:00Z,27.1690,-82.9260,1017.88,1111122 
COMPS,ioos:station:USF.COMPS:C10:1,2016-09-06T11:35:00Z,27.1690,-82.9260,1018.13,1111122 
COMPS,ioos:station:USF.COMPS:C10:1,2016-09-06T14:05:00Z,27.1690,-82.9260,1019.02,1111122 
COMPS,ioos:station:USF.COMPS:C10:1,2016-09-06T14:35:00Z,27.1690,-82.9260,1019.18,1111122 
COMPS,ioos:station:USF.COMPS:C10:1,2016-09-06T15:05:00Z,27.1690,-82.9260,1019.54,1111122 
COMPS,ioos:station:USF.COMPS:C10:1,2016-09-06T20:05:00Z,27.1690,-82.9260,1017.18,1111122 
COMPS,ioos:station:USF.COMPS:C10:1,2016-09-06T20:35:00Z,27.1690,-82.9260,1016.93,1111122 
COMPS,ioos:station:USF.COMPS:C10:1,2016-09-06T22:05:00Z,27.1690,-82.9260,1017.15,1111122 
COMPS,ioos:station:USF.COMPS:C10:1,2016-09-06T22:35:00Z,27.1690,-82.9260,1017.25,1111122 
COMPS,ioos:station:USF.COMPS:C10:1,2016-09-06T23:05:00Z,27.1690,-82.9260,1017.25,1111122 
COMPS,ioos:station:USF.COMPS:C10:1,2016-09-06T23:35:00Z,27.1690,-82.9260,1017.23,1111122 
COMPS,ioos:station:USF.COMPS:C10:1,2016-09-07T03:05:00Z,27.1690,-82.9260,1018.18,1111122 
COMPS,ioos:station:USF.COMPS:C10:1,2016-09-07T03:35:00Z,27.1690,-82.9260,1018.24,1111122 
COMPS,ioos:station:USF.COMPS:C10:1,2016-09-07T05:05:00Z,27.1690,-82.9260,1018.17,1111122 
COMPS,ioos:station:USF.COMPS:C10:1,2016-09-07T05:35:00Z,27.1690,-82.9260,1018.09,1111122 
COMPS,ioos:station:USF.COMPS:C10:1,2016-09-07T06:05:00Z,27.1690,-82.9260,1017.93,1111122 
COMPS,ioos:station:USF.COMPS:C10:1,2016-09-07T06:35:00Z,27.1690,-82.9260,1017.92,1111122 
COMPS,ioos:station:USF.COMPS:C10:1,2016-09-07T08:05:00Z,27.1690,-82.9260,1017.24,1111122 
COMPS,ioos:station:USF.COMPS:C10:1,2016-09-07T08:35:00Z,27.1690,-82.9260,1017.04,1111122 
COMPS,ioos:station:USF.COMPS:C10:1,2016-09-07T09:05:00Z,27.1690,-82.9260,1017.12,1111122 
COMPS,ioos:station:USF.COMPS:C10:1,2016-09-07T09:35:00Z,27.1690,-82.9260,1017.25,1111122 
COMPS,ioos:station:USF.COMPS:C10:1,2016-09-07T11:05:00Z,27.1690,-82.9260,1017.95,1111122 
COMPS,ioos:station:USF.COMPS:C10:1,2016-09-07T11:35:00Z,27.1690,-82.9260,1018.13,1111122 
COMPS,ioos:station:USF.COMPS:C10:1,2016-09-07T13:05:00Z,27.1690,-82.9260,1018.84,1111122 
COMPS,ioos:station:USF.COMPS:C10:1,2016-09-07T13:35:00Z,27.1690,-82.9260,1019.23,1111122 
COMPS,ioos:station:USF.COMPS:C10:1,2016-09-07T15:05:00Z,27.1690,-82.9260,1019.77,1111122 
COMPS,ioos:station:USF.COMPS:C10:1,2016-09-07T15:35:00Z,27.1690,-82.9260,1019.72,1111122 
COMPS,ioos:station:USF.COMPS:C10:1,2016-09-07T16:05:00Z,27.1690,-82.9260,1019.45,1111122 
COMPS,ioos:station:USF.COMPS:C10:1,2016-09-07T16:35:00Z,27.1690,-82.9260,1019.37,1111122 
COMPS,ioos:station:USF.COMPS:C10:1,2016-09-07T17:05:00Z,27.1690,-82.9260,1019.2,1111122 
COMPS,ioos:station:USF.COMPS:C10:1,2016-09-07T17:35:00Z,27.1690,-82.9260,1018.97,1111122 
COMPS,ioos:station:USF.COMPS:C10:1,2016-09-07T18:05:00Z,27.1690,-82.9260,1018.96,1111122 
COMPS,ioos:station:USF.COMPS:C10:1,2016-09-07T18:35:00Z,27.1690,-82.9260,1018.67,1111122 
COMPS,ioos:station:USF.COMPS:C10:1,2016-09-07T20:05:00Z,27.1690,-82.9260,1017.64,1111122 
COMPS,ioos:station:USF.COMPS:C10:1,2016-09-07T20:35:00Z,27.1690,-82.9260,1017.63,1111122 
COMPS,ioos:station:USF.COMPS:C10:1,2016-09-07T22:05:00Z,27.1690,-82.9260,1017.11,1111122 
COMPS,ioos:station:USF.COMPS:C10:1,2016-09-07T22:35:00Z,27.1690,-82.9260,1016.92,1111122 
COMPS,ioos:station:USF.COMPS:C10:1,2016-09-07T23:05:00Z,27.1690,-82.9260,1017.04,1111122 
COMPS,ioos:station:USF.COMPS:C10:1,2016-09-07T23:35:00Z,27.1690,-82.9260,1017.05,1111122 
COMPS,ioos:station:USF.COMPS:C10:1,2016-09-08T00:05:00Z,27.1690,-82.9260,1017.04,1111122 
COMPS,ioos:station:USF.COMPS:C10:1,2016-09-08T00:35:00Z,27.1690,-82.9260,1017.15,1111122 
COMPS,ioos:station:USF.COMPS:C10:1,2016-09-08T05:05:00Z,27.1690,-82.9260,1017.0,1111122 
COMPS,ioos:station:USF.COMPS:C10:1,2016-09-08T05:35:00Z,27.1690,-82.9260,1016.76,1111122 
COMPS,ioos:station:USF.COMPS:C10:1,2016-09-08T07:05:00Z,27.1690,-82.9260,1016.17,1111122 
COMPS,ioos:station:USF.COMPS:C10:1,2016-09-08T07:35:00Z,27.1690,-82.9260,1015.88,1111122 
COMPS,ioos:station:USF.COMPS:C10:1,2016-09-08T08:05:00Z,27.1690,-82.9260,1015.73,1111122 
COMPS,ioos:station:USF.COMPS:C10:1,2016-09-08T08:35:00Z,27.1690,-82.9260,1015.61,1111122 
COMPS,ioos:station:USF.COMPS:C10:1,2016-09-08T15:05:00Z,27.1690,-82.9260,1016.78,1111122 
COMPS,ioos:station:USF.COMPS:C10:1,2016-09-08T15:35:00Z,27.1690,-82.9260,1016.54,1111122 
COMPS,ioos:station:USF.COMPS:C10:1,2016-09-08T16:05:00Z,27.1690,-82.9260,1016.52,1111122 
COMPS,ioos:station:USF.COMPS:C10:1,2016-09-08T16:35:00Z,27.1690,-82.9260,1016.3,1111122 
COMPS,ioos:station:USF.COMPS:C10:1,2016-09-08T17:05:00Z,27.1690,-82.9260,1016.14,1111122 
COMPS,ioos:station:USF.COMPS:C10:1,2016-09-08T17:35:00Z,27.1690,-82.9260,1015.82,1111122 
COMPS,ioos:station:USF.COMPS:C10:1,2016-09-08T19:05:00Z,27.1690,-82.9260,1014.64,1111122 
COMPS,ioos:station:USF.COMPS:C10:1,2016-09-08T19:35:00Z,27.1690,-82.9260,1014.21,1111122 
COMPS,ioos:station:USF.COMPS:C10:1,2016-09-08T20:05:00Z,27.1690,-82.9260,1014.14,1111122 
COMPS,ioos:station:USF.COMPS:C10:1,2016-09-08T20:35:00Z,27.1690,-82.9260,1013.9,1111122 
COMPS,ioos:station:USF.COMPS:C10:1,2016-09-08T21:05:00Z,27.1690,-82.9260,1013.71,1111122 
COMPS,ioos:station:USF.COMPS:C10:1,2016-09-08T21:35:00Z,27.1690,-82.9260,1013.47,1111122 
COMPS,ioos:station:USF.COMPS:C10:1,2016-09-08T22:05:00Z,27.1690,-82.9260,1013.37,1111122 
COMPS,ioos:station:USF.COMPS:C10:1,2016-09-08T22:35:00Z,27.1690,-82.9260,1013.2,1111122 
COMPS,ioos:station:USF.COMPS:C10:1,2016-09-09T01:05:00Z,27.1690,-82.9260,1014.2,1111122 
COMPS,ioos:station:USF.COMPS:C10:1,2016-09-09T01:35:00Z,27.1690,-82.9260,1014.52,1111122 
COMPS,ioos:station:USF.COMPS:C10:1,2016-09-09T06:05:00Z,27.1690,-82.9260,1014.44,1111122 
COMPS,ioos:station:USF.COMPS:C10:1,2016-09-09T06:35:00Z,27.1690,-82.9260,1014.24,1111122 
COMPS,ioos:station:USF.COMPS:C10:1,2016-09-09T10:05:00Z,27.1690,-82.9260,1013.68,1111122 
COMPS,ioos:station:USF.COMPS:C10:1,2016-09-09T10:35:00Z,27.1690,-82.9260,1013.78,1111122 